Weather in Kyzyl-Khaya

Russia / Tyva Republic     50°02′45″N   89°52′06″E
temp.,
°C
wind,
m/s
gust,
m/s
humid.,
%
clouds,
%
prec.,
mm/h
press.,
hPa
HPBL,
m
5 march, fri
fri501:00−20sse23500 0.0 103146
04:00−20s334853 0.0 103136
07:00−19sse334143 0.0 103133
10:00−15sse2351100 0.0 102854
13:00−9s41352100 0.0 10231377
16:00−10sw51467100 0.0 10211539
19:00−15wsw698892 0.5 1027230
22:00−16wsw5590100 0.2 103377
6 march, sat
sat601:00−19sw447971 0.2 103630
04:00−19sw344345 0.0 103623
07:00−19ssw223639 0.0 103720
10:00−14sse22501 0.0 103462
13:00−11sse224623 0.0 1028252
16:00−10s22560 0.0 1024213
19:00−16ssw22440 0.0 102621
22:00−16ssw23310 0.0 102720
7 march, sun
sun701:00−17ssw23300 0.0 102820
04:00−17sw33310 0.0 102720
07:00−17sw33300 0.0 102820
10:00−12sw22460 0.0 102640
13:00−8ssw23390 0.0 1022449
16:00−8wsw23550 0.0 1021205
19:00−13wsw44470 0.0 102531
22:00−14sw234543 0.0 102721
8 march, mon
mon801:00−15ssw223670 0.0 102821
04:00−16sw223191 0.0 102821
07:00−16ssw222794 0.0 102921
10:00−10s224356 0.0 102637
13:00−7se224729 0.0 1022201
16:00−6s235713 0.0 1019238
19:00−11ssw334711 0.0 102121
22:00−12sw33540 0.0 102321
9 march, tue
tue901:00−11sw456450 0.0 102530
04:00−12sw5572100 0.0 102641
07:00−14sw447296 0.0 102831
10:00−11sw337219 0.0 1027133
13:00−8sw246015 0.0 1025761
16:00−8wsw35650 0.0 1023870
19:00−14sw23730 0.0 102632
22:00−14sw33737 0.0 102823